Showing default

YAOGAN-39 01B, 57728

Orbit data source: Space-Track

YAOGAN-39 01B, 57728 is a payload satellite owned by PLA GAD (CN) in LEO that was launched on Thu, 31 Aug 2023 UTC via a CHANG ZHENG 2D launch vehicle from the Xichang Space Center, China (XSC). Payload-class satellites include a variety of spacecraft equipped with specific instruments for various scientific and technological missions. These include communications satellites like Starlink; space stations such as the ISS; scientific satellites like the Hubble; Earth observation satellites from companies like Planet Labs, Umbra, and HawkEye 360; GPS; miniature CubeSats for education and research; and military/defense satellites.

Loading next visibility...
Identifier
57728, 2023-130B
Orbit
LEO
Country
Flag of CNCN / PRC
Related business
Manufacturer
SAST
Mission
Operational Defense Sigint
Bus & Motor
Unknown
Mass
~300 kg wet, ~300 kg dry
Launch date (UTC)
2023-08-31 (3 years ago)
Launch vehicle
CHANG ZHENG 2D
Launch site
Xichang Space Center, China (XSC)
Object type
Payload
Rocket body
Debris
Shape & HBR
Box + 2 Pan, 2.5 m
Radar Cross Section
11.063 m², Large (>1 m²)

Expand to show TLE details & history
Last TLE update: 1 day ago

TLE from 1 day ago
0 YAOGAN-39 01B
1 57728U 23130B   26172.33957772  .00003411  00000-0  17371-3 0  9990
2 57728  34.9932 126.2863 0008318 123.7221 236.4285 15.16286924156115
Epoch: 2026-06-21T08:08Z
TLE epoch observation values (Epoch: 2026-06-21T08:08:59.515Z)
Latitude
-0°
Longitude
94.49705°
Altitude
519.158 km
Speed
7.604 km/s
True Right ascension
08h 25m 08s
True Declination
0° 00' 00"
Sunlit
Object was in daylight at epoch
Visualization orbit readout
Latitude
Unknown
Longitude
Unknown
Altitude
Unknown
Speed
Unknown
Apparent Right ascension
Unknown
Apparent Declination
Unknown
Sunlit
N/A
Visualization observer readout
Local Sidereal Time
21:34:23
Azimuth
Unknown
Elevation
Unknown
Doppler factor
Unknown
Orbital elements
Apogee altitude
526.054 km
Perigee altitude
514.578 km
Semi-major axis
6,898.453 km
Eccentricity
0.00083
Inclination
34.9932°
RAAN
126.2863°
Arg. of periapsis
123.7221°
True anomaly
236.34913°
Mean anomaly
236.4285°
Eccentric anomaly
236.38881°
Mean motion
3.78805 °/min
Orbital period
95.04 mins
BSTAR
0.00017371
Loading maneuver chart data...
Computing Atmospheric mass density...
Loading historical data...
Loading historical data...
Loading historical data...
Loading historical data...
Loading historical data...
Loading historical data...
Loading historical data...
Other satellites on launch #130 in the year 2023 (2023-08-31 UTC)

Documentation

Showing up to 5 results
|